Probability
0 0 0 0 0 0 0 0 0 0 0 0 0 0 0 0 0 0 0 0 0 0 0 0 0 0 0 0 0 0 0 0 0 0 0 0 0 0 0 0 0 0 0
0 0 0 0 0 0 0 0 0 0 0 0 0 0 0 0 0 0 0 0 0 0 0 0 0 0 0 0 0 0 0 0 0 0 0 0 0 0 0 0 0 0 0
0 0 0 0 0 0 0 0 0 0 0 0 0 0 0 0 0 0 0 0 0 0 0 0 0 0 0 0 0 0 0 0 0 0 0 0 0 0 0 0 0 0 0
0 0 0 0 0 0 0 0 0 0 0 0 0 0 0 0 0 0 0 0 0 0 0 0 0 0 0 0 0 0 0 0 0 0 0 0 0 0 0 0 0 0 0
0 0 0 0 0 0 0 0 0 0 0 0 0 0 0 0 0 0 0 0 0 0 0 0 0 0 0 0 0 0 0 0 0 0 0 0 0 0 0 0 0 0 0
0 0 0 0 0 0 0 0 0 0 0 0 0 0 0 0 0 0 0 0 0 0 0 0 0 0 0 0 0 0 0 0 0 0 0 0 0 0 0 0 0 0 0
0 0 0 0 0 0 0 0 0 0 0 0 0 0 0 0 0 0 0 0 0 0 0 0 0 0 0 0 0 0 0 0 0 0 0 0 0 0 0 0 0 0 0
0 0 0 0 0 0 0 0 0 0 0 0 0 0 0 0 0 0 0 0 0 0 0 0 0 0 0 0 0 0 0 0 0 0 0 0 0 0 0 0 0 0 0
0 0 0 0 0 0 0 0 0 0 0 0 0 0 0 0 0 0 0 0 0 0 0 0 0 0 0 0 0 0 0 0 0 0 0 0 0 0 0 0 0 0 0
0 0 0 0 0 0 0 0 0 0 0 0 0 0 0 0 0 0 0 0 0 0 0 0 0 0 0 0 0 0 0 0 0 0 0 0 0 0 0 0 0 0 0
0 0 0 0 0 0 0 0 0 0 0 0 0 0 0 0 0 0 0 0 0 0 0 0 0 0 0 0 0 0 0 0 0 0 0 0 0 0 0 0 0 0 0
0 0 0 0 0 0 0 0 0 0 0 0 0 0 0 0 0 0 0 0 0 0 0 0 0 0 0 0 0 0 0 0 0 0 0 0 0 0 0 0 0 0 0
0 0 0 0 0 0 0 0 0 0 0 0 0 0 0 0 0 0 0 0 0 0 0 0 0 0 0 0 0 0 0 0 0 0 0 0 0 0 0 0 0 0 0
0 0 0 0 0 0 0 0 0 0 0 0 0 0 0 0 0 0 0 0 0 0 0 0 0 0 0 0 0 0 0 0 0 0 0 0 0 0 0 0 0 0 0
0 0 0 0 0 0 0 0 0 0 0 0 0 0 0 0 0 0 0 0 0 0 0 0 0 0 0 0 0 0 0 0 0 0 0 0 0 0 0 0 0 0 0
0 0 0 0 0 0 0 0 0 0 0 0 0 0 0 0 0 0 0 0 0 0 0 0 0 0 0 0 0 0 0 0 0 0 0 0 0 0 0 0 0 0 0
0 0 0 0 0 0 0 0 0 0 0 0 0 0 0 0 0 0 0 0 0 0 0 0 0 0 0 0 0 0 0 0 0 0 0 0 0 0 0 0 0 0 0
0 0 0 0 0 0 0 0 0 0 0 0 0 0 0 0 0 0 0 0 0 0 0 0 0 0 0 0 0 0 0 0 0 0 0 0 0 0 0 0 0 0 0
0 0 0 0 0 0 0 0 0 0 0 0 0 0 0 0 0 0 0 0 0 0 0 0 0 0 0 0 0 0 0 0 0 0 0 0 0 0 0 0 0 0 0
0 0 0 0 0 0 0 0 0 0 0 0 0 0 0 0 0 0 0 0 0 0 0 0 0 0 0 0 0 0 0 0 0 0 0 0 0 0 0 0 0 0 0
0 0 0 0 0 0 0 0 0 0 0 0 0 0 0 0 0 0 0 0 0 0 0 0 0 0 0 0 0 0 0 0 0 0 0 0 0 0 0 0 0 0 0
0 0 0 0 0 0 0 0 0 0 0 0 0 0 0 0 0 0 0 0 0 0 0 0 0 0 0 0 0 0 0 0 0 0 0 0 0 0 0 0 0 0 0
0 0 0 0 0 0 0 0 0 0 0 0 0 0 0 0 0 0 0 0 0 0 0 0 0 0 0 0 0 0 0 0 0 0 0 0 0 0 0 0 0 0 0
0 0 0 0 0 0 0 0 0 0 0 0 0 0 0 0 0 0 0 0 0 0 0 0 0 0 0 0 0 0 0 0 0 0 0 0 0 0 0 0 0 0 0
0 0 0 0 0 0 0 0 0 0 0 0 0 0 0 0 0 0 0 0 0 0 0 0 0 0 0 0 0 0 0 0 0 0 0 0 0 0 0 0 0 0 0
0 0 0 0 0 0 0 0 0 0 0 0 0 0 0 0 0 0 0 0 0 0 0 0 0 0 0 0 0 0 0 0 0 0 0 0 0 0 0 0 0 0 0
Wind_Speed
6 5 4 4 3 3 3 3 3 2 3 3 3 3 3 3 3 3 3 3 4 3 2 3 3 2 2 2 2 2 2 2 2 0 1 1 2 2 3 3 3 3 4
6 5 5 4 4 4 3 3 3 3 3 3 3 3 3 3 2 3 3 3 3 3 2 3 2 2 3 2 2 2 2 2 3 2 1 1 2 1 2 2 3 3 2
6 6 5 5 4 4 3 3 3 3 3 3 3 3 3 2 2 2 3 3 2 2 2 2 2 3 2 2 2 2 2 2 2 3 1 1 1 1 2 2 3 3 3
6 6 6 5 5 4 3 3 3 4 4 3 3 3 3 3 3 2 2 3 2 2 1 1 2 2 2 2 2 2 2 3 3 3 2 1 1 1 1 1 2 3 2
7 7 6 5 4 4 3 3 3 3 3 3 3 2 2 2 2 3 3 3 2 2 1 1 1 2 3 3 3 2 3 3 2 2 1 1 1 1 1 0 1 2 2
8 7 6 6 5 5 4 4 4 3 3 3 3 3 2 2 4 5 4 3 2 2 1 1 1 1 2 3 3 4 5 4 3 2 1 1 1 1 1 0 0 1 2
8 7 7 6 6 5 5 5 5 4 3 3 3 3 2 2 3 5 5 3 2 1 1 1 1 1 2 2 2 3 1 2 4 4 3 3 2 3 2 1 1 1 2
8 7 7 6 6 5 5 5 4 3 3 3 2 3 2 1 3 5 6 4 2 1 1 1 1 0 1 2 2 2 1 1 1 2 3 3 3 2 3 2 2 1 1
8 8 8 8 7 6 6 5 4 4 3 3 2 3 2 1 2 4 6 3 2 1 0 1 1 1 1 2 3 1 1 2 1 1 1 1 1 2 3 2 1 1 1
9 8 7 7 8 7 7 5 3 4 4 3 3 2 2 2 2 4 6 3 2 1 1 0 1 1 1 2 2 2 1 2 1 2 2 3 2 2 0 2 3 2 1
7 7 6 7 7 6 6 4 4 4 4 3 3 1 1 2 2 3 5 3 3 2 1 0 0 1 1 1 2 2 2 1 1 1 1 2 2 2 2 0 2 3 3
7 7 7 6 6 6 6 5 5 5 5 3 3 1 0 0 1 2 4 4 4 3 1 1 0 1 2 2 1 1 1 2 1 1 1 2 2 2 2 2 2 2 3
8 7 6 6 5 6 7 6 5 4 4 3 3 2 1 0 0 2 3 4 4 3 1 2 2 3 3 3 3 3 3 2 1 1 1 2 2 2 2 2 2 1 2
8 7 7 7 6 5 4 5 5 5 4 3 3 3 1 1 1 1 1 1 2 2 2 3 5 5 4 3 4 3 2 1 1 0 1 2 2 1 1 1 1 2 2
8 6 6 6 6 5 4 3 4 4 5 5 4 4 4 2 3 4 4 2 2 3 3 3 3 2 2 2 2 2 2 2 1 1 1 1 2 2 2 1 1 1 1
7 6 5 5 5 5 5 4 4 3 4 5 5 5 3 3 4 5 5 4 5 7 5 2 2 1 1 1 1 1 1 1 1 1 1 1 1 1 2 1 1 1 2
8 7 5 5 5 5 5 5 4 3 5 5 4 5 4 5 5 6 6 6 6 7 4 2 1 1 0 0 0 0 1 1 1 1 1 1 1 1 1 1 1 2 2
7 7 7 5 5 5 5 5 5 5 4 2 2 4 5 5 5 5 7 7 4 3 2 2 1 1 1 1 0 0 1 1 1 1 1 1 1 1 1 2 2 2 3
7 5 5 5 5 5 5 5 4 5 4 3 2 3 4 5 6 6 6 4 3 2 1 1 1 1 1 0 0 0 0 1 1 1 1 2 1 1 2 2 2 4 3
5 9 8 6 5 5 5 5 4 4 4 3 3 2 2 4 3 3 2 2 2 2 2 1 1 1 1 0 0 0 0 1 1 1 1 2 2 1 2 3 3 3 3
5 7 9 6 5 5 5 5 5 5 4 3 2 3 5 4 4 3 2 2 2 2 2 1 1 1 1 0 0 0 1 1 1 1 1 2 2 2 3 3 3 4 4
5 5 5 5 5 5 5 5 5 5 5 4 3 3 6 4 3 3 2 1 1 1 1 1 1 1 1 1 1 1 1 1 1 2 2 2 2 2 3 3 3 3 4
6 6 6 5 5 7 6 5 5 5 4 4 4 3 3 3 2 2 2 1 1 1 1 1 1 0 0 0 0 1 1 2 2 2 2 2 2 3 3 3 4 4 4
6 7 7 6 5 5 5 5 5 5 4 4 3 3 3 3 2 2 2 1 1 1 1 1 1 0 0 1 1 1 1 2 2 2 2 3 3 3 3 4 4 5 5
6 6 6 6 6 5 5 5 5 4 4 4 4 3 3 3 2 2 1 1 1 1 1 1 1 1 1 1 1 1 2 3 3 2 2 2 3 4 4 4 5 5 5
6 6 6 5 5 5 5 5 5 4 4 3 3 3 3 2 2 2 1 1 1 1 1 1 1 1 1 1 2 3 4 4 4 4 2 2 3 3 4 4 5 5 6
Wind_Direction
168 166 154 157 154 149 154 163 158 145 137 133 126 116 108 102 98 95 91 94 92 79 78 91 81 82 86 79 92 101 100 117 129 290 323 353 21 29 17 18 29 30 25
169 162 158 153 149 153 163 166 154 149 147 141 133 124 120 113 106 110 110 105 106 101 93 94 85 87 79 75 90 97 106 117 131 134 6 5 15 16 15 17 19 29 22
159 156 153 152 155 165 168 159 152 148 139 131 132 133 132 127 121 119 122 119 114 115 119 119 121 112 97 91 95 93 91 94 101 123 103 20 4 15 29 21 20 10 10
158 157 161 165 168 170 162 154 154 151 144 144 142 142 141 136 133 132 125 119 112 101 109 125 141 143 144 131 111 107 104 95 93 100 87 42 12 358 42 27 5 2 359
159 164 174 167 159 153 151 154 150 147 150 148 138 133 134 143 155 150 141 131 124 101 73 81 125 154 161 155 141 141 126 113 105 102 97 61 2 2 348 336 2 341 341
166 174 168 158 158 161 162 154 144 141 138 136 145 146 148 163 160 160 147 133 129 125 107 58 59 103 132 134 137 148 155 150 153 147 161 185 237 226 197 151 116 17 323
170 169 167 164 163 169 162 151 151 153 145 143 152 147 149 172 161 152 150 133 131 139 143 126 83 81 100 99 87 84 104 158 173 167 178 209 211 208 176 177 192 197 240
168 168 167 164 164 158 152 159 158 150 152 155 158 157 152 184 164 150 142 124 116 116 131 154 146 111 132 134 114 81 39 356 270 183 198 219 217 200 182 182 186 196 287
172 174 172 166 163 161 165 169 162 152 152 155 152 154 159 203 177 159 142 125 117 109 96 127 164 186 232 138 129 128 1 330 353 100 191 233 246 213 171 130 113 85 316
182 179 170 166 166 170 171 163 152 149 156 148 140 154 165 185 180 163 149 133 133 137 53 24 187 184 201 140 150 157 209 283 357 16 19 11 8 356 197 179 176 168 209
172 162 158 164 169 166 156 150 145 141 137 140 142 140 156 179 177 165 160 147 160 153 143 295 293 149 126 130 145 169 208 179 87 49 11 358 0 4 360 303 199 182 192
153 155 158 159 162 154 145 142 142 141 140 144 135 120 64 147 151 159 158 159 154 147 174 211 220 106 103 91 112 124 121 99 80 57 25 351 341 333 325 315 274 241 231
148 155 154 150 149 145 148 146 139 143 146 153 152 160 184 113 139 154 152 155 160 151 149 129 109 91 82 67 62 72 83 86 81 58 335 302 292 294 312 327 338 331 314
150 153 148 145 143 139 144 147 149 158 159 161 164 172 174 143 159 157 147 144 142 135 105 86 83 81 77 65 53 49 53 81 116 194 294 302 321 342 350 347 347 349 352
145 147 145 145 147 143 137 144 158 171 173 172 178 172 167 186 212 174 155 155 157 144 116 79 62 56 51 40 37 35 38 45 41 7 353 344 348 352 343 350 357 12 343
143 147 147 145 145 143 137 109 72 101 130 150 155 158 168 165 141 140 143 139 133 128 111 98 95 88 84 58 41 21 21 9 334 334 338 325 319 319 326 341 347 318 294
151 153 148 148 149 149 148 147 134 78 74 90 115 136 140 135 132 131 125 114 112 119 105 111 122 136 147 135 156 243 308 311 322 341 322 307 302 308 316 321 322 310 298
146 150 149 154 155 153 154 154 152 146 130 88 71 104 123 123 122 124 120 104 87 90 108 135 155 167 171 180 209 253 302 336 343 322 309 306 304 303 309 309 305 294 292
145 147 147 145 142 140 138 136 137 138 134 127 103 79 99 103 89 89 107 107 127 138 152 153 164 165 171 184 211 250 280 305 314 310 306 306 304 296 293 294 293 297 292
142 141 138 138 135 133 133 136 137 136 135 135 137 142 121 100 94 90 101 119 130 144 148 156 169 157 173 184 187 218 279 292 297 289 290 295 296 289 288 291 290 291 285
131 135 133 129 133 139 140 142 141 138 137 135 142 137 136 128 132 132 131 135 146 158 156 158 164 163 167 136 157 225 239 272 277 276 285 290 292 286 285 286 290 287 288
131 132 135 135 134 134 133 133 131 131 134 134 123 109 120 114 122 123 127 131 137 143 150 147 147 169 191 181 194 210 242 267 278 281 283 287 289 290 293 291 293 293 293
130 130 127 126 129 128 123 122 126 129 130 130 127 119 119 124 125 126 128 124 116 112 108 115 124 129 307 288 218 207 228 251 259 260 269 279 285 287 288 288 290 293 292
128 130 129 126 124 125 126 126 126 127 126 123 121 121 123 124 123 124 123 110 101 94 94 103 116 118 348 333 305 278 269 273 277 270 265 272 282 287 287 289 287 287 290
122 125 126 127 128 127 124 121 121 122 122 123 124 123 121 119 119 119 116 110 106 92 72 67 58 26 356 332 320 312 315 316 311 306 291 282 286 288 290 289 290 293 295
117 119 119 120 123 126 128 129 127 126 125 123 122 124 126 125 122 116 109 106 103 86 56 38 24 5 347 337 330 329 330 327 323 318 307 295 295 296 298 294 298 297 297